Погода в Кептине

Россия / Республика Саха (Якутия)     62°20′28″N   124°26′43″E
темп.,
°C
ветер,
м/с
пор.,
м/с
влажн.,
%
обл.,
%
осадки,
мм/ч
давл.,
гПа
погр.,
м
27 февраля, сб
сб2700:00−27вюв3897100 0.0 1028192
03:00−29в3598100 0.0 1027114
06:00−31в379834 0.0 1026136
09:00−30в379667 0.0 1026229
12:00−26в2595100 0.0 1024307
15:00−24всв2495100 0.0 1021385
18:00−24св2399100 0.6 1022195
21:00−25ссв2399100 1.1 1021135
28 февраля, вс
вс2800:00−26сз2399100 0.4 1021131
03:00−26сз3797100 0.7 1021415
06:00−28зсз4896100 0.3 1022513
09:00−28зсз4995100 0.6 1023588
12:00−27зсз5993100 0.2 1026738
15:00−25зсз5993100 0.4 1026852
18:00−26зсз41094100 0.2 1028765
21:00−27зсз41094100 0.3 1029683
1 марта, пн
пн100:00−28зсз41094100 0.1 1029633
03:00−27зсз41093100 0.1 1029604
06:00−29з4993100 0.0 1030456
09:00−29з4993100 0.0 1030467
12:00−28з4792100 0.0 1030495
15:00−27з3691100 0.0 1029630
18:00−28з2694100 0.0 1029304
21:00−30з2697100 0.0 1029143
2 марта, вт
вт200:00−32з2297100 0.0 102946
03:00−32з2297100 0.0 102829
06:00−33з1298100 0.0 102820
09:00−33з1298100 0.0 102844
12:00−28зсз1193100 0.0 1027289
15:00−26ссв0189100 0.0 1026486
18:00−32всв019797 0.0 102619
21:00−34св129982 0.0 102719
3 марта, ср
ср300:00−36всв1210059 0.0 102719
03:00−37св1210059 0.0 102719
06:00−38ссв1210048 0.0 102718
09:00−37с119862 0.0 102619
12:00−31ссз239186 0.0 1025308
15:00−29ссз239293 0.0 1024461
18:00−31сз2397100 0.0 102376
21:00−32зсз3697100 0.1 1024332